Weather History for KOSC - March, 2013

Change the Weather History Date:

Tuesday, March 12, 2013

  Actual Average Record
Temperature  
Mean Temperature 32 °F -  
Max Temperature 36 °F 33 °F 55 °F (2006)
Min Temperature 29 °F 18 °F 3 °F (1998)
Degree Days  
Heating Degree Days 32    
Moisture  
Dew Point 26 °F    
Average Humidity 78    
Maximum Humidity 92    
Minimum Humidity 62    
Precipitation  
Precipitation 0.00 in - - ()
Sea Level Pressure  
Sea Level Pressure 29.70 in    
Wind  
Wind Speed 14 mph (WSW)    
Max Wind Speed 21 mph    
Max Gust Speed 31 mph    
Visibility 10 miles    
Events Rain , Snow    
Averages and records for this station are not official NWS values.
T = Trace of Precipitation, MM = Missing Value Source: NWS Daily Summary

Daily Weather History Graph

Daily Weather History Graph

Search for Another Location

Airport or City:

Trip Planner

Search our weather history database for the weather conditions in past years. The results will help you decide how hot, cold, wet, or windy it might be!

Date:

Astronomy

Mar. 12, 2013 Rise Set
Actual Time 7:50 AM EDT 7:36 PM EDT
Civil Twilight 7:22 AM EDT 8:05 PM EDT
Nautical Twilight 6:48 AM EDT 8:38 PM EDT
Astronomical Twilight 6:14 AM EDT 9:13 PM EDT
Moon 7:53 AM EDT (3/12) 8:55 PM EDT (3/12)
Length of Visible Light 12h 43m
Length of Day
11h 45m
New Moon, 1% of the Moon is Illuminated
Mar 12
New Moon
Mar 19
First Quarter
Mar 27
Full
Apr 3
Last Quarter
Apr 10
New

Hourly Weather History & Observations

Time (EDT) Temp. Windchill Dew Point Humidity Pressure Visibility Wind Dir Wind Speed Gust Speed Precip Events Conditions
12:13 AM 36.1 °F 25.9 °F 32.9 °F 88% 29.50 in 10.0 mi SW 18.4 mph 24.2 mph N/A   Overcast
12:33 AM 36.0 °F 27.1 °F 32.5 °F 87% 29.51 in 10.0 mi SW 13.8 mph - N/A   Overcast
12:53 AM 35.6 °F 25.2 °F 32.4 °F 88% 29.51 in 10.0 mi SSW 18.4 mph 23.0 mph N/A   Overcast
1:13 AM 35.6 °F 25.2 °F 32.2 °F 87% 29.51 in 10.0 mi SSW 18.4 mph 23.0 mph N/A   Overcast
1:33 AM 35.6 °F 25.2 °F 32.0 °F 87% 29.52 in 10.0 mi SW 18.4 mph 31.1 mph N/A   Overcast
1:53 AM 35.6 °F 25.9 °F 32.0 °F 87% 29.53 in 10.0 mi SW 16.1 mph 24.2 mph N/A   Overcast
2:13 AM 34.7 °F 23.4 °F 31.3 °F 87% 29.54 in 10.0 mi SW 20.7 mph 28.8 mph N/A   Mostly Cloudy
2:33 AM 34.7 °F 23.7 °F 31.1 °F 87% 29.55 in 10.0 mi WSW 19.6 mph 25.3 mph N/A   Overcast
2:53 AM 34.0 °F 24.6 °F 31.6 °F 91% 29.55 in 7.0 mi WSW 13.8 mph 19.6 mph N/A Rain Light Rain
3:13 AM 33.3 °F 23.7 °F 31.3 °F 92% 29.56 in 10.0 mi WSW 13.8 mph 20.7 mph N/A   Overcast
3:33 AM 33.3 °F 22.1 °F 30.6 °F 90% 29.58 in 10.0 mi WSW 18.4 mph - N/A   Overcast
3:53 AM 33.3 °F 24.1 °F 30.2 °F 89% 29.58 in 10.0 mi WSW 12.7 mph 23.0 mph N/A   Overcast
4:13 AM 33.3 °F 23.7 °F 29.1 °F 85% 29.60 in 10.0 mi WSW 13.8 mph - N/A   Overcast
4:33 AM 33.1 °F 22.2 °F 28.4 °F 83% 29.61 in 10.0 mi WSW 17.3 mph 24.2 mph N/A   Overcast
4:53 AM 33.1 °F 21.2 °F 27.7 °F 81% 29.61 in 10.0 mi West 20.7 mph 24.2 mph N/A   Overcast
5:13 AM 32.9 °F 23.7 °F 27.7 °F 81% 29.61 in 10.0 mi WSW 12.7 mph - N/A   Overcast
5:33 AM 32.9 °F 25.3 °F 28.0 °F 82% 29.62 in 10.0 mi WSW 9.2 mph - N/A   Overcast
5:53 AM 32.5 °F 24.2 °F 28.2 °F 84% 29.62 in 10.0 mi WSW 10.4 mph - N/A   Overcast
6:13 AM 32.5 °F 24.8 °F 28.2 °F 84% 29.63 in 10.0 mi WSW 9.2 mph - N/A   Overcast
6:33 AM 32.4 °F 26.0 °F 28.2 °F 85% 29.64 in 10.0 mi WSW 6.9 mph - N/A   Overcast
6:54 AM 32.4 °F 26.9 °F 28.4 °F 85% 29.65 in 10.0 mi West 5.8 mph - N/A   Overcast
7:13 AM 32.4 °F 23.5 °F 27.3 °F 82% 29.65 in 10.0 mi West 11.5 mph - N/A   Overcast
7:33 AM 32.0 °F 24.8 °F 27.1 °F 82% 29.67 in 10.0 mi West 8.1 mph - N/A   Overcast
7:54 AM 32.0 °F 22.5 °F 26.6 °F 80% 29.68 in 10.0 mi West 12.7 mph 19.6 mph N/A   Overcast
8:13 AM 32.0 °F 23.6 °F 26.2 °F 79% 29.68 in 10.0 mi West 10.4 mph - N/A   Overcast
8:33 AM 32.0 °F 22.5 °F 25.2 °F 76% 29.69 in 10.0 mi West 12.7 mph 18.4 mph N/A   Overcast
8:54 AM 31.8 °F 22.8 °F 25.5 °F 78% 29.70 in 10.0 mi WSW 11.5 mph - N/A   Overcast
9:13 AM 31.8 °F 23.9 °F 25.5 °F 78% 29.71 in 10.0 mi West 9.2 mph 16.1 mph N/A   Overcast
9:33 AM 31.6 °F 22.6 °F 24.8 °F 76% 29.71 in 10.0 mi West 11.5 mph - N/A   Overcast
9:54 AM 31.5 °F 22.9 °F 24.6 °F 76% 29.71 in 10.0 mi West 10.4 mph - N/A   Overcast
10:13 AM 31.5 °F 22.3 °F 24.6 °F 76% 29.72 in 10.0 mi West 11.5 mph 16.1 mph N/A   Overcast
10:33 AM 31.5 °F 22.3 °F 23.9 °F 74% 29.72 in 10.0 mi West 11.5 mph - N/A   Overcast
10:54 AM 31.6 °F 22.6 °F 24.1 °F 74% 29.73 in 10.0 mi WSW 11.5 mph 17.3 mph N/A   Overcast
11:13 AM 32.0 °F 23.0 °F 23.9 °F 72% 29.73 in 10.0 mi WSW 11.5 mph - N/A   Overcast
11:33 AM 32.0 °F 22.5 °F 23.7 °F 71% 29.73 in 10.0 mi West 12.7 mph 20.7 mph N/A   Overcast
11:54 AM 32.2 °F 24.4 °F 24.3 °F 73% 29.73 in 10.0 mi West 9.2 mph - N/A   Overcast
12:13 PM 32.0 °F 22.5 °F 23.5 °F 71% 29.73 in 10.0 mi West 12.7 mph 18.4 mph N/A   Overcast
12:33 PM 32.0 °F 22.1 °F 23.4 °F 70% 29.73 in 10.0 mi West 13.8 mph 17.3 mph N/A   Overcast
12:54 PM 31.8 °F 21.4 °F 23.9 °F 73% 29.74 in 10.0 mi West 15.0 mph - N/A   Overcast
1:13 PM 32.0 °F 21.6 °F 23.7 °F 71% 29.74 in 10.0 mi WSW 15.0 mph 19.6 mph N/A   Overcast
1:33 PM 32.0 °F 22.5 °F 23.4 °F 70% 29.74 in 10.0 mi West 12.7 mph 17.3 mph N/A   Overcast
1:54 PM 33.1 °F 23.0 °F 22.3 °F 65% 29.74 in 10.0 mi West 15.0 mph - N/A   Overcast
2:13 PM 32.7 °F 21.1 °F 21.0 °F 62% 29.74 in 10.0 mi West 19.6 mph 25.3 mph N/A   Overcast
2:33 PM 32.4 °F 22.1 °F 21.7 °F 65% 29.75 in 10.0 mi West 15.0 mph 23.0 mph N/A   Overcast
2:54 PM 33.1 °F 21.9 °F 21.9 °F 64% 29.74 in 10.0 mi WSW 18.4 mph 23.0 mph N/A   Overcast
3:13 PM 32.7 °F 21.8 °F 22.8 °F 67% 29.75 in 10.0 mi West 17.3 mph - N/A   Overcast
3:33 PM 32.2 °F 20.7 °F 23.0 °F 69% 29.75 in 10.0 mi WSW 18.4 mph - N/A   Overcast
3:53 PM 32.0 °F 22.1 °F 25.0 °F 75% 29.75 in 5.0 mi WSW 13.8 mph - N/A   Haze
4:13 PM 31.6 °F 21.2 °F 25.5 °F 78% 29.76 in 4.0 mi WSW 15.0 mph - N/A Snow Light Snow
4:33 PM 32.0 °F 22.1 °F 25.7 °F 78% 29.76 in 10.0 mi WSW 13.8 mph 19.6 mph N/A   Overcast
4:53 PM 32.0 °F 20.8 °F 26.1 °F 79% 29.76 in 5.0 mi WSW 17.3 mph - N/A Snow Light Snow
5:13 PM 32.5 °F 23.7 °F 26.2 °F 78% 29.76 in 10.0 mi West 11.5 mph 16.1 mph N/A   Overcast
5:33 PM 32.2 °F 22.3 °F 25.0 °F 75% 29.76 in 10.0 mi West 13.8 mph - N/A   Overcast
5:53 PM 32.5 °F 21.9 °F 23.5 °F 69% 29.77 in 10.0 mi West 16.1 mph 21.9 mph N/A   Overcast
6:13 PM 32.2 °F 20.7 °F 23.7 °F 71% 29.77 in 10.0 mi WSW 18.4 mph 21.9 mph N/A   Overcast
6:33 PM 32.2 °F 21.4 °F 22.6 °F 68% 29.78 in 10.0 mi WSW 16.1 mph - N/A   Overcast
6:53 PM 32.0 °F 23.0 °F 21.7 °F 66% 29.79 in 10.0 mi WSW 11.5 mph - N/A   Overcast
7:13 PM 32.0 °F 22.5 °F 21.2 °F 64% 29.79 in 10.0 mi WSW 12.7 mph 18.4 mph N/A   Overcast
7:33 PM 32.0 °F 23.0 °F 21.2 °F 64% 29.80 in 10.0 mi WSW 11.5 mph 17.3 mph N/A   Overcast
7:53 PM 31.3 °F 22.7 °F 22.3 °F 69% 29.81 in 10.0 mi WSW 10.4 mph - N/A   Overcast
8:13 PM 31.3 °F 23.9 °F 22.8 °F 71% 29.81 in 10.0 mi WSW 8.1 mph - N/A   Overcast
8:34 PM 30.9 °F 25.2 °F 23.9 °F 75% 29.82 in 7.0 mi West 5.8 mph - N/A Snow Light Snow
8:53 PM 30.2 °F 24.3 °F 24.6 °F 80% 29.81 in 10.0 mi SW 5.8 mph - N/A   Overcast
9:13 PM 30.2 °F 24.3 °F 24.8 °F 80% 29.82 in 10.0 mi SW 5.8 mph - N/A   Overcast
9:34 PM 30.2 °F 22.6 °F 25.2 °F 82% 29.82 in 10.0 mi WSW 8.1 mph - N/A Snow Light Snow
9:53 PM 30.0 °F 23.2 °F 25.5 °F 83% 29.82 in 10.0 mi WSW 6.9 mph - N/A   Overcast
10:13 PM 30.0 °F 24.1 °F 25.5 °F 83% 29.82 in 10.0 mi WSW 5.8 mph - N/A   Overcast
10:34 PM 30.0 °F 24.1 °F 25.7 °F 84% 29.82 in 10.0 mi WSW 5.8 mph - N/A Snow Light Snow
10:53 PM 30.0 °F 21.7 °F 25.2 °F 82% 29.82 in 5.0 mi West 9.2 mph - N/A Snow Light Snow
11:13 PM 29.7 °F 21.3 °F 24.4 °F 81% 29.81 in 10.0 mi WSW 9.2 mph - N/A   Overcast
11:34 PM 29.7 °F 22.8 °F 24.3 °F 80% 29.81 in 10.0 mi WSW 6.9 mph - N/A   Overcast
11:53 PM 29.1 °F 23.0 °F 24.4 °F 83% 29.81 in 10.0 mi SW 5.8 mph - N/A   Overcast